FW6905 Weather Reports


Display with metric or nautical units.
time (UTC)temp
F
wind
direction
speed
MPH
gust
MPH
rain 1hr
in
rain 24hr
in
rain mn
in
humidity
%
barometer
mb
20260503190506 58 37 0.0 2.0 0.00 0.00 0.00 43 1019.8
20260503185506 59 71 0.0 2.0 0.00 0.00 0.00 41 1018.8
20260503185007 59 73 0.0 2.0 0.00 0.00 0.00 40 1018.8
20260503184506 60 90 0.0 1.0 0.00 0.00 0.00 39 1018.8
20260503184006 60 0 0.0 0.0 0.00 0.00 0.00 38 1018.8
20260503183506 61 0 0.0 0.0 0.00 0.00 0.00 38 1018.8
20260503183006 61 314 0.0 1.0 0.00 0.00 0.00 37 1018.8
20260503182506 62 335 0.0 2.0 0.00 0.00 0.00 38 1018.8
20260503181506 63 10 0.0 2.0 0.00 0.00 0.00 34 1018.8
20260503181007 64 90 0.0 2.0 0.00 0.00 0.00 33 1018.8
20260503180506 64 90 1.0 2.0 0.00 0.00 0.00 34 1018.8
20260503180007 65 203 0.0 2.0 0.00 0.00 0.00 32 1018.8
20260503174506 66 223 1.0 3.0 0.00 0.00 0.00 30 1018.8
20260503174007 67 244 0.0 4.0 0.00 0.00 0.00 30 1019.8
20260503173008 68 247 2.0 4.0 0.00 0.00 0.00 28 1019.8
20260503172506 69 251 2.0 4.0 0.00 0.00 0.00 28 1018.8
20260503172006 69 242 1.0 4.0 0.00 0.00 0.00 28 1018.8
20260503171506 70 223 3.0 4.0 0.00 0.00 0.00 28 1018.8
20260503170506 71 234 3.0 4.0 0.00 0.00 0.00 27 1018.8
20260503150506 75 208 3.0 13.0 0.00 0.00 0.00 24 1019.8
20260503131006 77 227 5.0 9.0 0.00 0.00 0.00 23 1019.8
20260503130506 77 246 3.0 11.0 0.00 0.00 0.00 22 1019.8
20260503110506 77 206 4.0 8.0 0.00 0.00 0.00 28 1018.8
20260503090506 71 261 4.0 9.0 0.00 0.00 0.00 37 1020.8
20260503081506 66 176 0.0 2.0 0.00 0.00 0.00 50 1020.8
20260503081006 65 231 0.0 2.0 0.00 0.00 0.00 51 1020.8
20260503080506 65 209 1.0 3.0 0.00 0.00 0.00 51 1020.8
20260503072505 59 74 1.0 3.0 0.00 0.00 0.00 59 1021.8
20260503072006 59 88 2.0 3.0 0.00 0.00 0.00 61 1021.8
20260503071506 58 118 2.0 3.0 0.00 0.00 0.00 62 1021.8
20260503071005 58 144 2.0 3.0 0.00 0.00 0.00 63 1021.8
20260503070505 57 66 2.0 3.0 0.00 0.00 0.00 66 1021.8
20260503055005 47 131 0.0 2.0 0.00 0.00 0.00 81 1021.8
20260503054506 47 132 2.0 2.0 0.00 0.00 0.00 81 1021.8
20260503054005 47 131 1.0 2.0 0.00 0.00 0.00 82 1021.8
20260503053506 46 133 1.0 2.0 0.00 0.00 0.00 81 1021.8
20260503053005 46 117 2.0 2.0 0.00 0.00 0.00 82 1021.8
20260503052506 45 95 2.0 2.0 0.00 0.00 0.00 82 1021.8
20260503052005 45 79 1.0 3.0 0.00 0.00 0.00 81 1021.8
20260503051506 44 70 2.0 3.0 0.00 0.00 0.00 80 1021.8
20260503051006 44 46 0.0 2.0 0.00 0.00 0.00 79 1021.8
20260503050506 43 111 0.0 2.0 0.00 0.00 0.00 80 1021.8
20260503050006 43 48 0.0 2.0 0.00 0.00 0.00 79 1021.8
20260503045506 43 22 0.0 2.0 0.00 0.00 0.00 78 1021.8
20260503045006 43 0 0.0 0.0 0.00 0.00 0.00 78 1021.8
20260503044505 43 0 0.0 0.0 0.00 0.00 0.00 79 1021.8
20260503043506 43 0 0.0 0.0 0.00 0.00 0.00 78 1021.8
20260503043005 43 111 0.0 2.0 0.00 0.00 0.00 76 1021.8
20260503042506 43 112 0.0 2.0 0.00 0.00 0.00 76 1021.8
20260503042005 43 112 0.0 2.0 0.00 0.00 0.00 76 1021.8
20260503041005 43 71 2.0 3.0 0.00 0.00 0.00 75 1020.8
20260503040506 43 46 1.0 2.0 0.00 0.00 0.00 75 1020.8
20260503040006 43 0 0.0 0.0 0.00 0.00 0.00 75 1020.8
20260503035505 43 0 0.0 0.0 0.00 0.00 0.00 75 1021.8
20260503035006 43 0 0.0 0.0 0.00 0.00 0.00 75 1021.8
20260503034505 43 0 0.0 0.0 0.00 0.00 0.00 75 1021.8
20260503034006 43 0 0.0 0.0 0.00 0.00 0.00 75 1021.8
20260503033505 43 94 0.0 2.0 0.00 0.00 0.00 74 1021.8
20260503033006 43 99 0.0 2.0 0.00 0.00 0.00 74 1021.8
20260503032506 43 107 1.0 2.0 0.00 0.00 0.00 75 1021.8
20260503032006 43 94 1.0 2.0 0.00 0.00 0.00 75 1021.8
20260503031506 43 68 0.0 2.0 0.00 0.00 0.00 74 1021.8
20260503031006 43 68 1.0 2.0 0.00 0.00 0.00 75 1021.8
20260503030005 44 30 0.0 2.0 0.00 0.00 0.00 73 1021.8
20260503025506 44 68 0.0 3.0 0.00 0.00 0.00 73 1021.8
20260503025005 44 77 2.0 3.0 0.00 0.00 0.00 74 1021.8
20260503024506 44 89 1.0 2.0 0.00 0.00 0.00 73 1021.8
20260503024005 44 87 2.0 2.0 0.00 0.00 0.00 73 1021.8
20260503023506 44 1 0.0 2.0 0.00 0.00 0.00 73 1021.8
20260503023006 44 1 1.0 2.0 0.00 0.00 0.00 74 1021.8
20260503022006 44 27 0.0 2.0 0.00 0.00 0.00 71 1021.8
20260503021505 44 27 0.0 2.0 0.00 0.00 0.00 72 1021.8
20260503021006 44 135 0.0 2.0 0.00 0.00 0.00 73 1021.8
20260503020506 44 135 0.0 2.0 0.00 0.00 0.00 72 1021.8
20260503020006 44 130 1.0 2.0 0.00 0.00 0.00 73 1021.8
20260503015506 45 100 1.0 2.0 0.00 0.00 0.00 72 1021.8
20260503015006 45 70 1.0 2.0 0.00 0.00 0.00 72 1021.8
20260503014005 45 97 2.0 2.0 0.00 0.00 0.00 74 1021.8
20260503013506 45 82 2.0 2.0 0.00 0.00 0.00 71 1021.8
20260503013006 45 48 1.0 2.0 0.00 0.00 0.00 71 1021.8
20260503012006 45 69 0.0 2.0 0.00 0.00 0.00 70 1021.8
20260503011506 45 48 0.0 2.0 0.00 0.00 0.00 70 1021.8
20260503010506 45 109 0.0 2.0 0.00 0.00 0.00 70 1020.8
20260503010006 46 107 1.0 2.0 0.00 0.00 0.00 70 1020.8
20260503005505 46 87 0.0 2.0 0.00 0.00 0.00 69 1021.8
20260503004505 46 82 2.0 2.0 0.00 0.00 0.00 71 1021.8
20260503004005 46 64 1.0 2.0 0.00 0.00 0.00 69 1021.8
20260503003505 46 64 1.0 2.0 0.00 0.00 0.00 68 1021.8
20260503003006 46 0 0.0 0.0 0.00 0.00 0.00 68 1021.8
20260503002506 46 78 0.0 2.0 0.00 0.00 0.00 68 1021.8
20260503001505 46 67 1.0 2.0 0.00 0.00 0.00 67 1021.8
20260503001006 47 0 0.0 0.0 0.00 0.00 0.00 67 1022.8
20260503000505 47 0 0.0 0.0 0.00 0.00 0.00 68 1022.8
20260503000006 47 45 0.0 1.0 0.00 0.00 0.00 68 1022.8
20260502235505 47 60 0.0 1.0 0.00 0.00 0.00 67 1021.8
20260502235006 47 81 0.0 2.0 0.00 0.00 0.00 66 1021.8
20260502234505 47 73 1.0 2.0 0.00 0.00 0.00 66 1021.8
20260502234006 47 89 2.0 2.0 0.00 0.00 0.00 66 1022.8
20260502233006 48 120 1.0 2.0 0.00 0.00 0.00 66 1022.8
20260502232505 48 104 2.0 2.0 0.00 0.00 0.00 66 1022.8
20260502232006 48 78 0.0 3.0 0.00 0.00 0.00 65 1022.8
20260502231505 48 71 2.0 3.0 0.00 0.00 0.00 66 1022.8
20260502231005 48 58 2.0 3.0 0.00 0.00 0.00 65 1023.8
20260502230006 48 90 0.0 2.0 0.00 0.00 0.00 64 1023.8
20260502225505 48 90 0.0 2.0 0.00 0.00 0.00 64 1022.8
20260502225006 49 86 0.0 2.0 0.00 0.00 0.00 64 1022.8
20260502224506 49 76 1.0 2.0 0.00 0.00 0.00 63 1022.8
20260502224006 49 0 0.0 0.0 0.00 0.00 0.00 64 1022.8
20260502223505 49 42 0.0 2.0 0.00 0.00 0.00 65 1022.8
20260502223006 49 40 0.0 2.0 0.00 0.00 0.00 63 1022.8
20260502222505 49 54 1.0 2.0 0.00 0.00 0.00 62 1022.8
20260502222006 49 112 0.0 2.0 0.00 0.00 0.00 62 1022.8
20260502221506 49 146 0.0 2.0 0.00 0.00 0.00 61 1022.8
20260502215506 50 68 0.0 2.0 0.00 0.00 0.00 60 1023.8
20260502215005 50 71 2.0 2.0 0.00 0.00 0.00 61 1023.8
20260502214505 50 203 0.0 2.0 0.00 0.00 0.00 60 1023.8
20260502213505 50 68 0.0 2.0 0.00 0.00 0.00 61 1022.8
20260502212005 51 93 0.0 2.0 0.00 0.00 0.00 58 1022.8
20260502211506 51 48 1.0 2.0 0.00 0.00 0.00 59 1022.8
20260502211005 51 36 0.0 2.0 0.00 0.00 0.00 57 1022.8
20260502210505 51 117 0.0 2.0 0.00 0.00 0.00 57 1022.8
20260502210006 52 173 1.0 2.0 0.00 0.00 0.00 58 1022.8
20260502205505 52 297 1.0 2.0 0.00 0.00 0.00 56 1023.8
20260502205006 52 62 1.0 2.0 0.00 0.00 0.00 55 1023.8
20260502204505 52 67 0.0 2.0 0.00 0.00 0.00 55 1023.8
20260502203505 53 0 0.0 0.0 0.00 0.00 0.00 54 1023.8
20260502203006 53 0 0.0 0.0 0.00 0.00 0.00 54 1023.8
20260502202505 53 45 0.0 1.0 0.00 0.00 0.00 53 1023.8
20260502202005 53 45 0.0 1.0 0.00 0.00 0.00 53 1023.8
20260502201505 54 0 0.0 0.0 0.00 0.00 0.00 52 1023.8
20260502201005 54 0 0.0 0.0 0.00 0.00 0.00 52 1023.8
20260502200506 54 0 0.0 0.0 0.00 0.00 0.00 50 1023.8
20260502200005 54 1 0.0 2.0 0.00 0.00 0.00 50 1023.8
20260502195506 55 1 0.0 2.0 0.00 0.00 0.00 50 1022.8
20260502195005 55 0 0.0 0.0 0.00 0.00 0.00 50 1022.8
20260502194506 55 158 0.0 2.0 0.00 0.00 0.00 47 1022.8
20260502194005 56 159 0.0 2.0 0.00 0.00 0.00 48 1022.8
20260502193506 56 168 0.0 2.0 0.00 0.00 0.00 46 1022.8
20260502193005 56 181 0.0 2.0 0.00 0.00 0.00 44 1022.8
20260502192506 57 181 0.0 2.0 0.00 0.00 0.00 44 1022.8
20260502192005 57 68 0.0 1.0 0.00 0.00 0.00 44 1022.8
20260502191506 58 68 0.0 2.0 0.00 0.00 0.00 41 1022.8